Weather History for Wahoo, NE

Change the Weather History Date:

Sunday, December 1, 2013

  Actual Average Record
Temperature  
Mean Temperature 34 °F -  
Max Temperature 46 °F 41 °F 64 °F (1970)
Min Temperature 22 °F 22 °F 0 °F (1985)
Degree Days  
Heating Degree Days 31    
Moisture  
Dew Point 25 °F    
Average Humidity 71    
Maximum Humidity 91    
Minimum Humidity 46    
Precipitation  
Precipitation 0.00 in - - ()
Sea Level Pressure  
Sea Level Pressure 30.04 in    
Wind  
Wind Speed 6 mph (NE)    
Max Wind Speed 10 mph    
Max Gust Speed -    
Visibility 10 miles    
Events      
Averages and records for this station are not official NWS values.
T = Trace of Precipitation, MM = Missing Value Source: NWS Daily Summary

Daily Weather History Graph

Daily Weather History Graph

Search for Another Location

Airport:

Trip Planner

Search our weather history database for the weather conditions in past years. The results will help you decide how hot, cold, wet, or windy it might be!

Date:

Astronomy

Dec. 01, 2013 Rise Set
Actual Time 7:32 AM CST 4:58 PM CST
Civil Twilight 7:02 AM CST 5:28 PM CST
Nautical Twilight 6:27 AM CST 6:03 PM CST
Astronomical Twilight 5:54 AM CST 6:36 PM CST
Moon 5:51 AM CST (12/1) 4:09 PM CST (12/1)
Length of Visible Light 10h 26m
Length of Day
9h 25m
Waning Crescent, 2% of the Moon is Illuminated
Dec 1
Waning Crescent
Dec 2
New
Dec 9
First Quarter
Dec 17
Full
Dec 25
Last Quarter

Hourly Weather History & Observations

Time (CST) Temp. Windchill Dew Point Humidity Pressure Visibility Wind Dir Wind Speed Gust Speed Precip Events Conditions
12:15 AM 30.9 °F 23.5 °F 25.0 °F 79% 30.15 in 10.0 mi NNW 8.1 mph - N/A   Clear
12:35 AM 30.7 °F 23.3 °F 24.4 °F 77% 30.14 in 10.0 mi NNW 8.1 mph - N/A   Clear
12:55 AM 29.3 °F 21.5 °F 23.9 °F 80% 30.14 in 10.0 mi NNW 8.1 mph - N/A   Clear
1:15 AM 28.4 °F 19.1 °F 23.5 °F 82% 30.14 in 10.0 mi NNW 10.4 mph - N/A   Clear
1:35 AM 27.5 °F 18.6 °F 23.0 °F 83% 30.14 in 10.0 mi NNW 9.2 mph - N/A   Clear
1:55 AM 27.0 °F 19.5 °F 22.6 °F 84% 30.14 in 10.0 mi NNW 6.9 mph - N/A   Clear
2:15 AM 27.5 °F 20.2 °F 23.0 °F 83% 30.14 in 10.0 mi NNW 6.9 mph - N/A   Clear
2:35 AM 26.8 °F 19.3 °F 22.8 °F 85% 30.14 in 10.0 mi NNW 6.9 mph - N/A   Clear
2:55 AM 27.5 °F 19.3 °F 23.4 °F 84% 30.15 in 10.0 mi NNW 8.1 mph - N/A   Clear
3:15 AM 26.6 °F 19.1 °F 22.8 °F 86% 30.16 in 10.0 mi NNW 6.9 mph - N/A   Clear
3:35 AM 26.8 °F 19.3 °F 23.0 °F 86% 30.15 in 10.0 mi NNW 6.9 mph - N/A   Clear
3:55 AM 25.7 °F 17.1 °F 22.1 °F 86% 30.14 in 10.0 mi NNW 8.1 mph - N/A   Clear
4:15 AM 24.8 °F 17.9 °F 21.6 °F 87% 30.14 in 10.0 mi NNW 5.8 mph - N/A   Clear
4:35 AM 24.3 °F 17.3 °F 21.2 °F 88% 30.13 in 10.0 mi NNW 5.8 mph - N/A   Clear
4:55 AM 24.3 °F 18.4 °F 21.2 °F 88% 30.13 in 10.0 mi NNW 4.6 mph - N/A   Clear
5:15 AM 23.9 °F 15.0 °F 21.2 °F 89% 30.14 in 10.0 mi NNW 8.1 mph - N/A   Clear
5:35 AM 24.3 °F 18.4 °F 21.6 °F 89% 30.13 in 10.0 mi NNW 4.6 mph - N/A   Clear
5:55 AM 24.1 °F 17.0 °F 21.2 °F 89% 30.13 in 10.0 mi NNW 5.8 mph - N/A   Clear
6:15 AM 23.0 °F 15.8 °F 20.1 °F 89% 30.13 in 10.0 mi NNW 5.8 mph - N/A   Clear
6:35 AM 23.0 °F 17.0 °F 20.3 °F 89% 30.14 in 10.0 mi NNW 4.6 mph - N/A   Clear
6:55 AM 22.6 °F 18.0 °F 20.1 °F 90% 30.14 in 10.0 mi NNW 3.5 mph - N/A   Clear
7:15 AM 23.2 °F 16.0 °F 21.0 °F 91% 30.14 in 10.0 mi NW 5.8 mph - N/A   Clear
7:35 AM 22.1 °F 14.7 °F 19.6 °F 90% 30.15 in 7.0 mi NNW 5.8 mph - N/A   Clear
7:55 AM 22.8 °F 14.5 °F 20.5 °F 91% 30.15 in 7.0 mi NNW 6.9 mph - N/A   Clear
8:15 AM 24.8 °F 17.9 °F 22.1 °F 89% 30.15 in 7.0 mi NNW 5.8 mph - N/A   Clear
8:35 AM 25.9 °F 19.2 °F 23.2 °F 90% 30.15 in 7.0 mi NNW 5.8 mph - N/A   Clear
8:55 AM 29.5 °F 25.9 °F 25.5 °F 85% 30.16 in 10.0 mi North 3.5 mph - N/A   Clear
9:15 AM 30.9 °F 25.2 °F 26.4 °F 83% 30.15 in 10.0 mi North 5.8 mph - N/A   Clear
9:35 AM 32.0 °F 27.5 °F 26.8 °F 81% 30.15 in 10.0 mi NNE 4.6 mph - N/A   Clear
9:55 AM 34.0 °F 29.8 °F 26.8 °F 75% 30.14 in 10.0 mi ENE 4.6 mph - N/A   Clear
10:15 AM 35.4 °F 32.6 °F 27.5 °F 73% 30.13 in 10.0 mi ESE 3.5 mph - N/A   Clear
10:35 AM 36.9 °F 33.1 °F 27.1 °F 68% 30.12 in 10.0 mi SE 4.6 mph - N/A   Clear
10:55 AM 38.1 °F 35.7 °F 27.5 °F 66% 30.12 in 10.0 mi SE 3.5 mph - N/A   Clear
11:15 AM 39.6 °F - 27.7 °F 62% 30.11 in 10.0 mi Calm Calm - N/A   Clear
11:35 AM 40.5 °F - 27.5 °F 60% 30.10 in 10.0 mi Calm Calm - N/A   Clear
11:55 AM 42.1 °F - 27.9 °F 57% 30.09 in 10.0 mi Calm Calm - N/A   Clear
12:15 PM 42.8 °F - 27.9 °F 56% 30.08 in 10.0 mi Calm Calm - N/A   Clear
12:35 PM 44.1 °F - 27.7 °F 53% 30.06 in 10.0 mi Calm Calm - N/A   Clear
12:55 PM 44.4 °F - 27.7 °F 52% 30.06 in 10.0 mi Calm Calm - N/A   Clear
1:15 PM 45.3 °F - 27.1 °F 49% 30.05 in 10.0 mi Calm Calm - N/A   Clear
1:35 PM 45.7 °F - 27.3 °F 49% 30.04 in 10.0 mi Calm Calm - N/A   Clear
1:55 PM 46.4 °F - 27.3 °F 47% 30.02 in 10.0 mi Calm Calm - N/A   Clear
2:15 PM 46.4 °F - 26.6 °F 46% 30.01 in 10.0 mi Calm Calm - N/A   Clear
2:35 PM 46.4 °F 44.3 °F 26.8 °F 46% 30.00 in 10.0 mi ESE 4.6 mph - N/A   Clear
2:55 PM 46.4 °F 44.3 °F 26.8 °F 46% 29.99 in 10.0 mi East 4.6 mph - N/A   Clear
3:15 PM 46.4 °F 44.3 °F 27.1 °F 47% 29.98 in 10.0 mi East 4.6 mph - N/A   Clear
3:35 PM 46.6 °F - 27.3 °F 47% 29.98 in 10.0 mi East 4.6 mph - N/A   Clear
3:55 PM 46.0 °F 43.1 °F 27.1 °F 48% 29.96 in 10.0 mi ESE 5.8 mph - N/A   Scattered Clouds
4:15 PM 45.0 °F 42.6 °F 26.8 °F 49% 29.96 in 10.0 mi SE 4.6 mph - N/A   Clear
4:35 PM 43.3 °F 40.7 °F 26.6 °F 52% 29.96 in 10.0 mi East 4.6 mph - N/A   Scattered Clouds
4:55 PM 42.4 °F 38.8 °F 26.1 °F 52% 29.96 in 10.0 mi East 5.8 mph - N/A   Mostly Cloudy
5:15 PM 42.3 °F 40.5 °F 26.2 °F 53% 29.96 in 10.0 mi NE 3.5 mph - N/A   Mostly Cloudy
5:35 PM 40.1 °F 36.9 °F 25.9 °F 57% 29.96 in 10.0 mi ENE 4.6 mph - N/A   Mostly Cloudy
5:55 PM 38.8 °F 33.8 °F 25.7 °F 59% 29.95 in 10.0 mi East 6.9 mph - N/A   Mostly Cloudy
6:15 PM 39.7 °F 34.9 °F 26.2 °F 59% 29.94 in 10.0 mi East 6.9 mph - N/A   Overcast
6:35 PM 38.8 °F - 25.7 °F 59% 29.95 in 10.0 mi Calm Calm - N/A   Overcast
6:55 PM 38.5 °F - 25.7 °F 60% 29.94 in 10.0 mi Calm Calm - N/A   Overcast
7:15 PM 39.0 °F - 25.9 °F 59% 29.92 in 10.0 mi Calm Calm - N/A   Scattered Clouds
7:35 PM 35.2 °F 32.4 °F 24.6 °F 65% 29.92 in 10.0 mi ESE 3.5 mph - N/A   Clear
7:55 PM 34.0 °F - 25.2 °F 70% 29.92 in 10.0 mi Calm Calm - N/A   Clear
8:15 PM 33.1 °F 30.0 °F 24.1 °F 70% 29.91 in 10.0 mi ESE 3.5 mph - N/A   Clear
8:35 PM 32.5 °F 27.1 °F 23.7 °F 70% 29.90 in 10.0 mi ESE 5.8 mph - N/A   Clear
8:55 PM 32.0 °F 27.5 °F 23.0 °F 69% 29.89 in 10.0 mi SE 4.6 mph - N/A   Clear
9:15 PM 31.5 °F 25.8 °F 23.4 °F 72% 29.89 in 10.0 mi SSE 5.8 mph - N/A   Clear
9:35 PM 32.0 °F 28.7 °F 24.6 °F 74% 29.89 in 10.0 mi SE 3.5 mph - N/A   Clear
9:55 PM 31.8 °F 27.3 °F 24.1 °F 73% 29.88 in 10.0 mi SE 4.6 mph - N/A   Clear
10:15 PM 32.4 °F 29.1 °F 24.8 °F 74% 29.88 in 10.0 mi SE 3.5 mph - N/A   Clear
10:35 PM 32.0 °F 27.5 °F 24.4 °F 74% 29.87 in 10.0 mi SSE 4.6 mph - N/A   Clear
10:55 PM 31.6 °F 26.0 °F 24.6 °F 75% 29.86 in 10.0 mi SSE 5.8 mph - N/A   Clear
11:15 PM 31.1 °F 25.4 °F 24.8 °F 77% 29.85 in 10.0 mi South 5.8 mph - N/A   Clear
11:35 PM 30.4 °F 25.6 °F 24.3 °F 78% 29.85 in 10.0 mi SE 4.6 mph - N/A   Clear
11:55 PM 31.6 °F 26.0 °F 25.2 °F 77% 29.84 in 10.0 mi SE 5.8 mph - N/A   Clear